| time (UTC) | temp F | wind direction | speed knots | gust knots | rain 1hr in | rain 24hr in | rain mn in | humidity % | barometer mb |
| 20260506221624 | 75 | 229 | 4.3 | 8.7 | 0.00 | 0.00 | 0.00 | 83 | 1014.4 |
| 20260506220120 | 76 | 225 | 3.5 | 11.3 | 0.00 | 0.00 | 0.00 | 82 | 1014.4 |
| 20260506214555 | 76 | 270 | 2.6 | 11.3 | 0.00 | 0.00 | 0.00 | 81 | 1014.2 |
| 20260506213106 | 76 | 241 | 4.3 | 11.3 | 0.00 | 0.00 | 0.00 | 81 | 1014.6 |
| 20260506211600 | 77 | 270 | 3.5 | 12.2 | 0.00 | 0.00 | 0.00 | 80 | 1014.7 |
| 20260506210055 | 77 | 215 | 3.5 | 10.4 | 0.00 | 0.00 | 0.00 | 78 | 1014.7 |
| 20260506204554 | 78 | 221 | 4.3 | 13.0 | 0.00 | 0.00 | 0.00 | 77 | 1014.9 |
| 20260506203049 | 77 | 285 | 4.3 | 13.0 | 0.00 | 0.00 | 0.00 | 78 | 1015.0 |
| 20260506201552 | 77 | 294 | 4.3 | 12.2 | 0.00 | 0.00 | 0.00 | 78 | 1015.4 |
| 20260506200055 | 77 | 236 | 4.3 | 10.4 | 0.00 | 0.00 | 0.00 | 76 | 1015.5 |
| 20260506194554 | 78 | 192 | 4.3 | 13.0 | 0.00 | 0.00 | 0.00 | 76 | 1015.5 |
| 20260506193051 | 78 | 274 | 5.2 | 13.0 | 0.00 | 0.00 | 0.00 | 76 | 1015.6 |
| 20260506191556 | 78 | 228 | 3.5 | 11.3 | 0.00 | 0.00 | 0.00 | 76 | 1015.9 |
| 20260506190056 | 77 | 238 | 4.3 | 11.3 | 0.00 | 0.00 | 0.00 | 76 | 1016.0 |
| 20260506184612 | 78 | 273 | 3.5 | 9.6 | 0.00 | 0.00 | 0.00 | 76 | 1016.4 |
| 20260506183054 | 78 | 224 | 4.3 | 10.4 | 0.00 | 0.00 | 0.00 | 76 | 1016.4 |
| 20260506181553 | 78 | 208 | 6.1 | 10.4 | 0.00 | 0.00 | 0.00 | 75 | 1016.6 |
| 20260506180052 | 77 | 227 | 3.5 | 10.4 | 0.00 | 0.00 | 0.00 | 78 | 1016.8 |
| 20260506174552 | 77 | 276 | 3.5 | 13.9 | 0.00 | 0.00 | 0.00 | 78 | 1017.0 |
| 20260506173050 | 77 | 196 | 3.5 | 8.7 | 0.00 | 0.00 | 0.00 | 78 | 1017.2 |
| 20260506171559 | 76 | 211 | 3.5 | 10.4 | 0.00 | 0.00 | 0.00 | 80 | 1017.3 |
| 20260506170057 | 77 | 242 | 3.5 | 8.7 | 0.00 | 0.00 | 0.00 | 78 | 1017.4 |
| 20260506164551 | 76 | 236 | 4.3 | 14.8 | 0.00 | 0.00 | 0.00 | 78 | 1017.4 |
| 20260506163052 | 77 | 274 | 3.5 | 9.6 | 0.00 | 0.00 | 0.00 | 78 | 1017.6 |
| 20260506161550 | 77 | 225 | 5.2 | 8.7 | 0.00 | 0.00 | 0.00 | 79 | 1017.4 |
| 20260506160101 | 76 | 267 | 3.5 | 9.6 | 0.00 | 0.00 | 0.00 | 79 | 1017.6 |
| 20260506154557 | 76 | 221 | 3.5 | 8.7 | 0.00 | 0.00 | 0.00 | 79 | 1017.7 |
| 20260506153051 | 76 | 251 | 3.5 | 11.3 | 0.00 | 0.00 | 0.00 | 81 | 1017.6 |
| 20260506151556 | 75 | 206 | 3.5 | 8.7 | 0.00 | 0.00 | 0.00 | 80 | 1017.7 |
| 20260506150055 | 75 | 222 | 2.6 | 7.8 | 0.00 | 0.00 | 0.00 | 81 | 1017.7 |
| 20260506144601 | 75 | 266 | 3.5 | 9.6 | 0.00 | 0.00 | 0.00 | 81 | 1017.4 |
| 20260506143053 | 75 | 221 | 4.3 | 10.4 | 0.00 | 0.00 | 0.00 | 79 | 1017.4 |
| 20260506141553 | 75 | 250 | 2.6 | 7.8 | 0.00 | 0.00 | 0.00 | 80 | 1017.1 |
| 20260506140052 | 75 | 201 | 4.3 | 8.7 | 0.00 | 0.00 | 0.00 | 77 | 1017.2 |
| 20260506134551 | 75 | 180 | 2.6 | 8.7 | 0.00 | 0.00 | 0.00 | 79 | 1017.1 |
| 20260506133053 | 74 | 265 | 4.3 | 9.6 | 0.00 | 0.00 | 0.00 | 79 | 1017.1 |
| 20260506131605 | 74 | 304 | 2.6 | 7.8 | 0.00 | 0.00 | 0.00 | 81 | 1017.0 |
| 20260506130052 | 73 | 217 | 4.3 | 10.4 | 0.00 | 0.00 | 0.00 | 81 | 1016.8 |
| 20260506124552 | 73 | 200 | 3.5 | 8.7 | 0.00 | 0.00 | 0.00 | 82 | 1016.6 |
| 20260506123057 | 72 | 248 | 2.6 | 9.6 | 0.00 | 0.00 | 0.00 | 84 | 1016.5 |
| 20260506121556 | 71 | 199 | 2.6 | 7.0 | 0.00 | 0.00 | 0.00 | 87 | 1016.5 |
| 20260506120053 | 70 | 281 | 0.9 | 5.2 | 0.00 | 0.00 | 0.00 | 90 | 1016.4 |
| 20260506114556 | 67 | 240 | 0.9 | 4.3 | 0.00 | 0.00 | 0.00 | 93 | 1016.3 |
| 20260506113053 | 65 | 234 | 0.9 | 3.5 | 0.00 | 0.00 | 0.00 | 93 | 1016.0 |
| 20260506111550 | 61 | 171 | 0.0 | 0.9 | 0.00 | 0.00 | 0.00 | 92 | 1016.0 |
| 20260506110052 | 61 | 0 | 0.0 | 0.9 | 0.00 | 0.00 | 0.00 | 92 | 1016.2 |
| 20260506104555 | 61 | 355 | 0.0 | 0.9 | 0.00 | 0.00 | 0.00 | 92 | 1016.0 |
| 20260506103054 | 61 | 0 | 0.0 | 0.0 | 0.00 | 0.00 | 0.00 | 91 | 1015.8 |
| 20260506101550 | 60 | 0 | 0.0 | 0.0 | 0.00 | 0.00 | 0.00 | 90 | 1015.9 |
| 20260506100104 | 61 | 0 | 0.0 | 0.9 | 0.00 | 0.00 | 0.00 | 89 | 1015.8 |
| 20260506094552 | 62 | 0 | 0.0 | 0.0 | 0.00 | 0.00 | 0.00 | 90 | 1015.8 |
| 20260506093053 | 63 | 0 | 0.0 | 0.0 | 0.00 | 0.00 | 0.00 | 89 | 1015.9 |
| 20260506091556 | 63 | 0 | 0.0 | 0.9 | 0.00 | 0.00 | 0.00 | 88 | 1016.0 |
| 20260506090050 | 64 | 0 | 0.0 | 0.9 | 0.00 | 0.00 | 0.00 | 87 | 1015.9 |
| 20260506084549 | 66 | 235 | 0.0 | 1.7 | 0.00 | 0.00 | 0.00 | 86 | 1016.0 |
| 20260506083050 | 67 | 0 | 0.0 | 2.6 | 0.00 | 0.00 | 0.00 | 85 | 1015.9 |
| 20260506081554 | 67 | 234 | 0.0 | 2.6 | 0.00 | 0.00 | 0.00 | 85 | 1015.9 |
| 20260506073055 | 67 | 240 | 0.0 | 3.5 | 0.00 | 0.00 | 0.00 | 85 | 1016.0 |
| 20260506071559 | 67 | 233 | 0.9 | 4.3 | 0.00 | 0.00 | 0.00 | 85 | 1015.7 |
| 20260506061551 | 66 | 254 | 0.9 | 3.5 | 0.00 | 0.00 | 0.00 | 85 | 1016.2 |
| 20260506044552 | 65 | 0 | 0.0 | 2.6 | 0.00 | 0.00 | 0.00 | 80 | 1016.7 |
| 20260506043047 | 66 | 207 | 0.9 | 3.5 | 0.00 | 0.00 | 0.00 | 80 | 1016.8 |
| 20260506041559 | 66 | 232 | 1.7 | 4.3 | 0.00 | 0.00 | 0.00 | 80 | 1016.9 |
| 20260506040109 | 66 | 231 | 1.7 | 3.5 | 0.00 | 0.00 | 0.00 | 79 | 1016.9 |
| 20260506034547 | 66 | 202 | 0.9 | 3.5 | 0.00 | 0.00 | 0.00 | 79 | 1016.8 |
| 20260506033050 | 66 | 241 | 0.9 | 3.5 | 0.00 | 0.00 | 0.00 | 78 | 1016.8 |
| 20260506031553 | 65 | 223 | 0.9 | 2.6 | 0.00 | 0.00 | 0.00 | 77 | 1016.7 |
| 20260506024558 | 66 | 207 | 0.9 | 3.5 | 0.00 | 0.00 | 0.00 | 76 | 1016.8 |
| 20260506023058 | 65 | 132 | 2.6 | 6.1 | 0.00 | 0.00 | 0.00 | 77 | 1016.7 |
| 20260506021559 | 65 | 236 | 0.0 | 2.6 | 0.00 | 0.00 | 0.00 | 76 | 1017.0 |
| 20260506020052 | 65 | 242 | 0.9 | 2.6 | 0.00 | 0.00 | 0.00 | 75 | 1016.9 |
| 20260506014600 | 65 | 201 | 0.9 | 4.3 | 0.00 | 0.00 | 0.00 | 76 | 1016.8 |
| 20260506013054 | 65 | 213 | 0.9 | 3.5 | 0.00 | 0.00 | 0.00 | 75 | 1016.5 |
| 20260506011550 | 65 | 0 | 0.0 | 2.6 | 0.00 | 0.00 | 0.00 | 74 | 1016.7 |
| 20260506010053 | 65 | 219 | 0.9 | 2.6 | 0.00 | 0.00 | 0.00 | 74 | 1016.8 |
| 20260506004551 | 66 | 195 | 0.0 | 3.5 | 0.00 | 0.00 | 0.00 | 74 | 1016.3 |
| 20260506003046 | 66 | 0 | 0.9 | 3.5 | 0.00 | 0.00 | 0.00 | 73 | 1016.5 |
| 20260506001553 | 67 | 0 | 0.9 | 6.1 | 0.00 | 0.00 | 0.00 | 72 | 1016.6 |
| 20260506000059 | 69 | 206 | 1.7 | 5.2 | 0.00 | 0.00 | 0.00 | 71 | 1016.8 |
| 20260505234548 | 69 | 211 | 2.6 | 7.0 | 0.00 | 0.00 | 0.00 | 70 | 1016.6 |
| 20260505233059 | 70 | 167 | 2.6 | 7.0 | 0.00 | 0.00 | 0.00 | 69 | 1016.4 |
| 20260505231554 | 70 | 217 | 3.5 | 9.6 | 0.00 | 0.00 | 0.00 | 70 | 1016.2 |
| 20260505230050 | 70 | 249 | 4.3 | 9.6 | 0.00 | 0.00 | 0.00 | 68 | 1016.5 |
| 20260505224551 | 72 | 197 | 5.2 | 9.6 | 0.00 | 0.00 | 0.00 | 67 | 1016.6 |
| 20260505223052 | 72 | 242 | 4.3 | 10.4 | 0.00 | 0.00 | 0.00 | 67 | 1016.6 |